Home > Weather > Landsberg am Lech > Past weeks

Flag for Germany Weather for the Past 2 Weeks in Landsberg am Lech, Bavaria, Germany

Now
36 °F

Mostly cloudy.


Feels Like: 31 °F
Forecast: 37 / 44 °F
Wind: 6 mph from South

Location: Landsberg

Current Time: Feb 13, 2016 at 3:38:27 AM

Latest Report: Feb 13, 2016 at 2:20 AM


Visibility: N/A

Pressure: 29.33 "Hg (27.25 "Hg at 593m altitude)

Humidity: 81%

Dew point: 30 °F

Location of Landsberg am LechLocation

Historic Weather in Landsberg am Lech — Graph

°F

Landsberg am Lech Temperature Yesterday

Maximum temperature yesterday: 43 °F (at 2:20 PM)
Minimum temperature yesterday: 28 °F (at 12:20 AM)
Average temperature yesterday: 35 °F

High & Low Weather Summary for the Past Weeks

 TemperatureHumidityPressure
High57 °F (Feb 6, 3:20 PM)100% (Jan 29, 1:20 AM)30.42 "Hg (Jan 29, 1:20 AM)
Low27 °F (Feb 11, 10:20 PM)33% (Feb 8, 2:20 PM)29.24 "Hg (Feb 9, 7:20 PM)
Average40 °F77%29.94 "Hg
* Reported Jan 29 1:20 AM — Feb 13 1:20 AM, Landsberg am Lech, Weather by CustomWeather, © 2016

Note: Actual official high and low records may vary slightly from our data, if they occured in-between our weather recording intervals... More about our weather records

Advertising

Landsberg am Lech Weather History for the Previous 24 Hours

 ConditionsComfort  
Time TempWeatherWind HumidityBarometerVisibility
1:20 AM
Sat, Feb 13
34 °FMostly cloudy.6 mph87%29.33 "HgN/A
12:20 AM34 °FMostly cloudy.5 mph87%29.33 "HgN/A
11:20 PM
Fri, Feb 12
36 °FLight snow. Overcast.2 mph81%29.33 "HgN/A
10:20 PM36 °FLight snow. Passing clouds.6 mph75%29.33 "HgN/A
9:20 PM36 °FPassing clouds.6 mph70%29.36 "HgN/A
8:20 PM36 °FPassing clouds.5 mph65%29.36 "HgN/A
7:20 PM37 °FPassing clouds.9 mph60%29.36 "HgN/A
6:20 PM37 °FPartly cloudy.13 mph56%29.36 "HgN/A
5:20 PM39 °FBroken clouds.12 mph52%29.36 "HgN/A
4:20 PM41 °FPartly sunny.12 mph45%29.39 "HgN/A
3:20 PM43 °FScattered clouds.9 mph42%29.42 "HgN/A
2:20 PM43 °FScattered clouds.10 mph39%29.45 "HgN/A
1:20 PM41 °FPassing clouds.7 mph49%29.50 "HgN/A
12:20 PM41 °FScattered clouds.5 mph49%29.53 "HgN/A
11:20 AM37 °FScattered clouds.3 mph60%29.56 "HgN/A
10:20 AM34 °FPartly sunny.6 mph65%29.59 "HgN/A
9:20 AM30 °FBroken clouds.3 mph80%29.62 "HgN/A
8:20 AM30 °FLight snow. Broken clouds.3 mph80%29.65 "HgN/A
7:20 AM32 °FPartly cloudy.2 mph69%29.65 "HgN/A
6:20 AM30 °FPartly cloudy.5 mph80%29.68 "HgN/A
5:20 AM28 °FPartly cloudy.5 mph80%29.68 "HgN/A
4:20 AM30 °FPassing clouds.6 mph75%29.68 "HgN/A
3:20 AM28 °FPassing clouds.3 mph80%29.68 "HgN/A
Weather by CustomWeather, © 2016

See weather overviewHow to use our weather pages